AirNav   Pilot Hours Calculator
 
 1603 users online  

O74 Elliot's Landing Airport
Mount Victory, Ohio, USA

GOING TO MOUNT VICTORY?


FAA INFORMATION EFFECTIVE 15 JULY 2021

Location

FAA Identifier: O74
Lat/Long: 40-31-29.0000N 083-30-42.0000W
40-31.483333N 083-30.700000W
40.5247222,-83.5116667
(estimated)
Elevation: 1045 ft. / 319 m (estimated)
Variation: 05W (1995)
From city: 1 mile SE of MOUNT VICTORY, OH
Time zone: UTC -4 (UTC -5 during Standard Time)
Zip code: 43340

Airport Operations

Airport use: Open to the public
Activation date: 06/1995
Control tower: no
ARTCC: INDIANAPOLIS CENTER
FSS: DAYTON FLIGHT SERVICE STATION
NOTAMs facility: DAY (NOTAM-D service available)
Attendance: UNATNDD
Wind indicator: yes
Segmented circle: no

Airport Communications

CTAF: 122.9
WX AWOS-2 at I95 (8 nm NW): 126.4 (419-675-0781)
WX AWOS-3 at EDJ (17 nm SW): 118.075 (937-599-4654)
WX AWOS-3 at MRT (19 nm S): 119.275 (937-644-2967)

Nearby radio navigation aids

VOR radial/distance  VOR name  Freq  Var
BUDr260/(21.1)BUCKEYE VOR109.8005W
FBCr159/28.1FLAG CITY VORTAC108.2002W
RODr065/28.1ROSEWOOD VORTAC117.5005W

 
NDB name  Hdg/Dist  Freq  Var  ID
TIFFIN207/36.826905WTII - .. ..

Airport Services

Runway Information

Runway 15/33

Dimensions: 2750 x 110 ft. / 838 x 34 m
Surface: turf, in good condition
Runway edge markings: 15/33 MKD WITH TIRES ON EACH END.
RUNWAY 15  RUNWAY 33
Traffic pattern: leftleft
Obstructions: 3 ft. crops, 100 ft. left of centerline
+72 FT TREE 855 FM 87 FT LEFT OBST CLNS SLOPE 11:1.
6 ft. crops, 75 ft. left of centerline

Airport Ownership and Management from official FAA records

Ownership: Privately-owned
Owner: ELLIOT & ELLIOTT INC
PO BOX 173
MT VICTORY, OH 43340-0257
Phone 937-354-2851
Manager: DAVID WAGNER
491 S MAIN ST
MT VICTORY, OH 43340-0257
Phone 937-354-2851
ALT CTC SCOTT ELLIOT (937) 645-0631.

Airport Operational Statistics

Aircraft operations: avg 30/week *
100% transient general aviation
* for 12-month period ending 11 September 2019

Additional Remarks

FOR CD CTC INDIANAPOLIS ARTCC AT 317-247-2411.

Instrument Procedures

There are no published instrument procedures at O74.

Some nearby airports with instrument procedures:

I95 - Hardin County Airport (8 nm NW)
KEDJ - Bellefontaine Regional Airport (17 nm SW)
KMRT - Union County Airport (19 nm S)
KMNN - Marion Municipal Airport (21 nm E)
56D - Wyandot County Airport (23 nm NE)
 
Loc | Ops | Rwys | IFR | FBO | Links
Com | Nav | Svcs | Stats | Notes
Area around O74 (Elliot's Landing Airport)
 
Road maps at: MapQuest Bing Google
 
Aerial photo
WARNING: Photo may not be current or correct
Aerial photo of O74 (Elliot's Landing Airport)
Do you have a better or more recent aerial photo of Elliot's Landing Airport that you would like to share? If so, please send us your photo.

 
Sectional chart

 
Airport distance calculator
Flying to Elliot's Landing Airport? Find the distance to fly.

From to O74

Sunrise and sunset
Times for 26-Jul-2021
 Local
(UTC-4)
 Zulu
(UTC)
Morning civil twilight05:5509:55
Sunrise06:2710:27
Sunset20:5400:54
Evening civil twilight21:2601:26

Current date and time
Zulu (UTC)  26-Jul-2021 17:19:47
Local (UTC-4)  26-Jul-2021 13:19:47
 
METAR
KEDJ 
17nm SW 
261655Z AUTO 04008KT 10SM CLR 29/17 A3006 RMK AO1
KMRT 
19nm S 
261655Z AUTO 36006KT 10SM CLR 29/16 A3005 RMK AO2 T02880155
KDLZ 
23nm SE 
261655Z AUTO 32005KT 10SM CLR 31/17 A3003 RMK AO2
KAOH 
25nm NW 
261653Z AUTO 34005KT 10SM -RA CLR 29/17 A3005 RMK AO2 RAB53 SLP167 P0000 T02890167
KI74 
26nm SW 
261655Z AUTO 35003KT 10SM CLR 27/18 A3005 RMK AO2
KFDY 
30nm N 
261653Z AUTO 31004KT 10SM CLR 30/14 A3003 RMK AO2 SLP158 T03000144
KOSU 
33nm SE 
261653Z 35009KT 10SM CLR 31/14 A3002 RMK AO2 SLP158 T03110144
TAF
KFDY 
30nm N 
261131Z 2612/2706 31006KT P6SM SKC FM270100 22003KT P6SM SKC
NOTAMs
Click for the latest NOTAMs
NOTAMs are issued by the DoD/FAA and will open in a separate window not controlled by AirNav.

 

 
 

Would you like to see your business listed on this page?

 If your business provides an interesting product or service to pilots, flight crews, aircraft, or users of the Elliot's Landing Airport, you should consider listing it here.  To start the listing process, click on the button below
 
Add a business
 

Other Pages about Elliot's Landing Airport

Update a link
 
Copyright © AirNav, LLC. All rights reserved. Privacy Policy  Contact